When you browse on this site, cookies collect data to enhance your experience and personalize the content and advertising you see.
Visit our Privacy Policy to learn more. By continuing to use the site, you agree to this use of cookies and data.
  • In Lithuania
  • List of Countries
  • For 7 days
  • Water Temperature
  • Satellite Maps
  • Weather Map
  • Weather Widgets
  • user-avatar
    Login

    Hourly Weather Valencia

    Today, 20 January, Sunday

    Time Temperature Precipitation Wind Pressure Humidity
    00:00 +23°C° 0 mm 1 mps 718 mmHg 95%
    01:00 +23°C° 0 mm 1 mps 718 mmHg 95%
    02:00 +22°C° 0 mm 1 mps 718 mmHg 95%
    03:00 +22°C° 0 mm 1 mps 718 mmHg 95%
    04:00 +22°C° 0 mm 1 mps 718 mmHg 95%
    05:00 +22°C° 0 mm 1 mps 718 mmHg 92%
    06:00 +21°C° 0 mm 0 mps 719 mmHg 89%
    07:00 +21°C° 0 mm 0 mps 719 mmHg 85%
    08:00 +26°C° 0 mm 1 mps 720 mmHg 73%
    09:00 +28°C° 0 mm 1 mps 720 mmHg 60%
    10:00 +31°C° 0 mm 2 mps 721 mmHg 47%
    11:00 +32°C° 0 mm 2 mps 720 mmHg 44%
    12:00 +34°C° 0 mm 2 mps 719 mmHg 40%
    13:00 +35°C° 0 mm 2 mps 719 mmHg 37%
    14:00 +35°C° 0 mm 2 mps 718 mmHg 39%
    15:00 +34°C° 0 mm 2 mps 717 mmHg 42%
    16:00 +32°C° 0 mm 2 mps 717 mmHg 45%
    17:00 +30°C° 0 mm 1 mps 717 mmHg 56%
    18:00 +27°C° 0 mm 1 mps 717 mmHg 67%
    19:00 +25°C° 0 mm 1 mps 717 mmHg 78%
    20:00 +24°C° 0 mm 1 mps 717 mmHg 82%
    21:00 +24°C° 0 mm 1 mps 718 mmHg 87%
    22:00 +24°C° 0 mm 1 mps 718 mmHg 91%
    23:00 +24°C° 0 mm 1 mps 718 mmHg 92%

    Tomorrow, 21 January, Monday

    Time Temperature Precipitation Wind Pressure Humidity
    00:00 +23°C° 0 mm 1 mps 718 mmHg 93%
    01:00 +23°C° 0 mm 1 mps 718 mmHg 94%
    02:00 +23°C° 0 mm 1 mps 718 mmHg 94%
    03:00 +23°C° 0 mm 1 mps 718 mmHg 94%
    04:00 +23°C° 0 mm 1 mps 718 mmHg 94%
    05:00 +23°C° 0 mm 1 mps 719 mmHg 92%
    06:00 +24°C° 0 mm 1 mps 719 mmHg 90%
    07:00 +24°C° 0 mm 1 mps 720 mmHg 88%
    08:00 +27°C° 0 mm 1 mps 720 mmHg 77%
    09:00 +29°C° 0 mm 1 mps 721 mmHg 67%
    10:00 +31°C° 0 mm 1 mps 722 mmHg 56%
    11:00 +31°C° 0.2 mm 1 mps 721 mmHg 56%
    12:00 +32°C° 0.2 mm 1 mps 720 mmHg 55%
    13:00 +32°C° 0.2 mm 2 mps 719 mmHg 54%
    14:00 +31°C° 0.4 mm 2 mps 718 mmHg 59%
    15:00 +30°C° 0.4 mm 2 mps 718 mmHg 63%
    16:00 +29°C° 0.4 mm 2 mps 717 mmHg 67%
    17:00 +28°C° 0.1 mm 2 mps 717 mmHg 75%
    18:00 +26°C° 0.1 mm 2 mps 718 mmHg 84%
    19:00 +25°C° 0.1 mm 2 mps 718 mmHg 92%
    20:00 +24°C° 0 mm 2 mps 719 mmHg 92%
    21:00 +24°C° 0 mm 2 mps 719 mmHg 93%
    22:00 +24°C° 0 mm 2 mps 720 mmHg 94%
    23:00 +24°C° 0 mm 2 mps 719 mmHg 93%

    Day after tomorrow, 22 January, Tuesday

    Time Temperature Precipitation Wind Pressure Humidity
    00:00 +23°C° 0 mm 2 mps 719 mmHg 93%
    01:00 +23°C° 0 mm 1 mps 719 mmHg 93%
    02:00 +23°C° 0 mm 1 mps 719 mmHg 94%
    03:00 +22°C° 0 mm 1 mps 718 mmHg 94%
    04:00 +22°C° 0 mm 1 mps 718 mmHg 95%
    05:00 +23°C° 0 mm 1 mps 719 mmHg 93%
    06:00 +23°C° 0 mm 1 mps 719 mmHg 91%
    07:00 +24°C° 0 mm 2 mps 720 mmHg 89%
    08:00 +26°C° 0 mm 2 mps 720 mmHg 80%
    09:00 +28°C° 0 mm 2 mps 721 mmHg 70%
    10:00 +30°C° 0 mm 2 mps 721 mmHg 61%
    11:00 +30°C° 0.1 mm 2 mps 721 mmHg 57%
    12:00 +31°C° 0.1 mm 2 mps 720 mmHg 54%
    13:00 +32°C° 0.1 mm 2 mps 719 mmHg 51%
    14:00 +31°C° 0.1 mm 2 mps 719 mmHg 55%
    15:00 +30°C° 0.1 mm 2 mps 718 mmHg 58%
    16:00 +29°C° 0.1 mm 3 mps 717 mmHg 62%
    17:00 +28°C° 0.1 mm 3 mps 718 mmHg 71%
    18:00 +26°C° 0.1 mm 2 mps 718 mmHg 79%
    19:00 +24°C° 0.1 mm 2 mps 719 mmHg 88%
    20:00 +24°C° 0 mm 2 mps 719 mmHg 89%
    21:00 +24°C° 0 mm 2 mps 719 mmHg 91%
    22:00 +23°C° 0 mm 2 mps 720 mmHg 92%
    23:00 +23°C° 0 mm 2 mps 719 mmHg 93%

    23 January, Wednesday

    Time Temperature Precipitation Wind Pressure Humidity
    00:00 +23°C° 0 mm 2 mps 719 mmHg 93%
    01:00 +23°C° 0 mm 2 mps 719 mmHg 94%
    02:00 +23°C° 0 mm 2 mps 719 mmHg 94%
    03:00 +22°C° 0 mm 1 mps 719 mmHg 95%
    04:00 +22°C° 0 mm 1 mps 719 mmHg 96%
    05:00 +23°C° 0 mm 1 mps 719 mmHg 93%
    06:00 +23°C° 0 mm 1 mps 720 mmHg 90%
    07:00 +23°C° 0 mm 1 mps 720 mmHg 87%
    08:00 +26°C° 0 mm 1 mps 721 mmHg 76%
    09:00 +28°C° 0 mm 1 mps 721 mmHg 64%
    10:00 +30°C° 0 mm 1 mps 722 mmHg 52%
    11:00 +31°C° 0 mm 2 mps 721 mmHg 49%
    12:00 +32°C° 0 mm 2 mps 720 mmHg 45%
    13:00 +34°C° 0 mm 2 mps 719 mmHg 42%
    14:00 +32°C° 0 mm 2 mps 718 mmHg 45%
    15:00 +31°C° 0 mm 2 mps 718 mmHg 48%
    16:00 +30°C° 0 mm 2 mps 717 mmHg 52%
    17:00 +28°C° 0 mm 2 mps 717 mmHg 62%
    18:00 +26°C° 0 mm 2 mps 717 mmHg 73%
    19:00 +24°C° 0 mm 2 mps 718 mmHg 84%
    20:00 +24°C° 0 mm 2 mps 718 mmHg 86%
    21:00 +24°C° 0 mm 2 mps 718 mmHg 89%
    22:00 +23°C° 0 mm 2 mps 719 mmHg 91%
    23:00 +23°C° 0 mm 1 mps 719 mmHg 92%

    24 January, Thursday

    Time Temperature Precipitation Wind Pressure Humidity
    00:00 +23°C° 0 mm 1 mps 718 mmHg 92%
    01:00 +22°C° 0 mm 1 mps 718 mmHg 93%
    02:00 +22°C° 0 mm 1 mps 718 mmHg 94%
    03:00 +22°C° 0 mm 1 mps 718 mmHg 94%
    04:00 +22°C° 0 mm 1 mps 718 mmHg 95%
    05:00 +22°C° 0 mm 1 mps 718 mmHg 92%
    06:00 +23°C° 0 mm 1 mps 719 mmHg 88%
    07:00 +23°C° 0 mm 1 mps 719 mmHg 85%
    08:00 +26°C° 0 mm 1 mps 720 mmHg 73%
    09:00 +28°C° 0 mm 1 mps 720 mmHg 62%
    10:00 +31°C° 0 mm 1 mps 721 mmHg 50%
    11:00 +32°C° 0 mm 1 mps 720 mmHg 48%
    12:00 +32°C° 0 mm 1 mps 719 mmHg 46%
    13:00 +34°C° 0 mm 2 mps 718 mmHg 44%
    14:00 +32°C° 0 mm 2 mps 718 mmHg 46%
    15:00 +31°C° 0 mm 2 mps 717 mmHg 48%
    16:00 +31°C° 0 mm 2 mps 717 mmHg 51%
    17:00 +29°C° 0 mm 2 mps 717 mmHg 62%
    18:00 +27°C° 0 mm 2 mps 717 mmHg 73%
    19:00 +25°C° 0 mm 2 mps 717 mmHg 83%
    20:00 +24°C° 0 mm 2 mps 718 mmHg 86%
    21:00 +24°C° 0 mm 1 mps 718 mmHg 89%
    22:00 +23°C° 0 mm 1 mps 718 mmHg 92%
    23:00 +23°C° 0 mm 1 mps 718 mmHg 92%

    25 January, Friday

    Time Temperature Precipitation Wind Pressure Humidity
    00:00 +23°C° 0 mm 1 mps 718 mmHg 93%
    01:00 +23°C° 0 mm 1 mps 718 mmHg 93%
    02:00 +23°C° 0 mm 1 mps 718 mmHg 93%
    03:00 +22°C° 0 mm 1 mps 718 mmHg 93%
    04:00 +22°C° 0 mm 1 mps 718 mmHg 94%
    05:00 +22°C° 0 mm 1 mps 718 mmHg 90%
    06:00 +21°C° 0 mm 0 mps 719 mmHg 87%
    07:00 +21°C° 0 mm 0 mps 719 mmHg 83%
    08:00 +26°C° 0 mm 1 mps 720 mmHg 72%
    09:00 +29°C° 0 mm 1 mps 720 mmHg 61%
    10:00 +32°C° 0 mm 1 mps 721 mmHg 49%
    11:00 +32°C° 0 mm 1 mps 720 mmHg 47%
    12:00 +34°C° 0 mm 2 mps 719 mmHg 46%
    13:00 +35°C° 0 mm 2 mps 718 mmHg 44%
    14:00 +34°C° 0 mm 2 mps 718 mmHg 49%
    15:00 +31°C° 0 mm 2 mps 717 mmHg 54%
    16:00 +30°C° 0 mm 3 mps 716 mmHg 60%
    17:00 +28°C° 0 mm 3 mps 717 mmHg 70%
    18:00 +26°C° 0 mm 2 mps 717 mmHg 80%
    19:00 +24°C° 0 mm 2 mps 717 mmHg 91%
    20:00 +24°C° 0 mm 2 mps 718 mmHg 91%
    21:00 +24°C° 0 mm 2 mps 718 mmHg 91%
    22:00 +24°C° 0 mm 2 mps 718 mmHg 91%
    23:00 +23°C° 0 mm 2 mps 718 mmHg 91%
    Show more